Time,TemperatureF,DewpointF,PressureIn,WindDirection,WindDirectionDegrees,WindSpeedMPH,WindSpeedGustMPH,Humidity,HourlyPrecipIn,Conditions,Clouds,dailyrainin,SoftwareType,DateUTC
2013-03-01 00:02:00,69.0,58.0,29.96,NW,314,5.0,10.0,68,0.00,,,0.06,,2013-03-01 05:02:00,
2013-03-01 00:11:00,69.0,58.0,29.96,NW,314,5.0,10.0,68,0.00,,,0.06,,2013-03-01 05:11:00,
2013-03-01 00:22:00,69.0,60.0,29.96,NW,313,4.0,8.0,72,0.00,,,0.06,,2013-03-01 05:22:00,
2013-03-01 00:33:00,69.0,60.0,29.96,NW,326,3.0,9.0,72,0.00,,,0.06,,2013-03-01 05:33:00,
2013-03-01 00:42:00,69.0,60.0,29.96,NW,326,3.0,9.0,72,0.00,,,0.06,,2013-03-01 05:42:00,
2013-03-01 00:53:00,69.0,60.0,29.96,NW,316,2.0,9.0,73,0.00,,,0.06,,2013-03-01 05:53:00,
2013-03-01 01:02:00,69.0,60.0,29.95,WNW,291,3.0,8.0,74,0.00,,,0.06,,2013-03-01 06:02:00,
2013-03-01 01:12:00,69.0,60.0,29.95,WNW,291,3.0,8.0,74,0.00,,,0.06,,2013-03-01 06:12:00,
2013-03-01 01:22:00,69.0,61.0,29.95,NW,320,4.0,9.0,75,0.00,,,0.06,,2013-03-01 06:22:00,
2013-03-01 01:32:00,69.0,61.0,29.93,NNW,343,4.0,7.0,76,0.00,,,0.06,,2013-03-01 06:32:00,
2013-03-01 01:42:00,69.0,61.0,29.93,NNW,343,4.0,7.0,76,0.00,,,0.06,,2013-03-01 06:42:00,
2013-03-01 01:53:00,69.0,62.0,29.94,NW,322,1.0,5.0,78,0.00,,,0.06,,2013-03-01 06:53:00,
2013-03-01 02:02:00,68.0,61.0,29.93,WNW,301,1.0,6.0,78,0.00,,,0.06,,2013-03-01 07:02:00,
2013-03-01 02:12:00,68.0,61.0,29.93,WNW,301,1.0,6.0,78,0.00,,,0.06,,2013-03-01 07:12:00,
2013-03-01 02:22:00,67.0,60.0,29.94,NW,318,0.0,5.0,78,0.00,,,0.06,,2013-03-01 07:22:00,
2013-03-01 02:32:00,67.0,60.0,29.95,NW,320,1.0,4.0,78,0.00,,,0.06,,2013-03-01 07:32:00,
2013-03-01 02:42:00,67.0,60.0,29.95,NW,320,1.0,4.0,78,0.00,,,0.06,,2013-03-01 07:42:00,
2013-03-01 02:52:00,67.0,60.0,29.94,WNW,293,1.0,6.0,79,0.00,,,0.06,,2013-03-01 07:52:00,
2013-03-01 03:02:00,67.0,60.0,29.94,WNW,293,1.0,2.0,79,0.00,,,0.06,,2013-03-01 08:02:00,
2013-03-01 03:12:00,67.0,60.0,29.94,WNW,293,1.0,2.0,79,0.00,,,0.06,,2013-03-01 08:12:00,
2013-03-01 03:22:00,67.0,60.0,29.94,NW,309,2.0,5.0,78,0.00,,,0.01,,2013-03-01 08:22:00,
2013-03-01 03:32:00,67.0,60.0,29.93,WNW,295,1.0,7.0,77,0.00,,,0.01,,2013-03-01 08:32:00,
2013-03-01 03:43:00,67.0,60.0,29.93,WNW,295,1.0,7.0,77,0.00,,,0.01,,2013-03-01 08:43:00,
2013-03-01 03:53:00,67.0,60.0,29.93,NW,326,4.0,6.0,77,0.01,,,0.02,,2013-03-01 08:53:00,
2013-03-01 04:02:00,67.0,60.0,29.92,NW,326,0.0,2.0,79,0.01,,,0.02,,2013-03-01 09:02:00,
2013-03-01 04:12:00,67.0,60.0,29.92,NW,326,0.0,2.0,79,0.01,,,0.02,,2013-03-01 09:12:00,
2013-03-01 04:22:00,67.0,61.0,29.92,NW,326,0.0,0.0,81,0.01,,,0.01,,2013-03-01 09:22:00,
2013-03-01 04:32:00,67.0,61.0,29.93,NW,326,0.0,0.0,82,0.01,,,0.01,,2013-03-01 09:32:00,
2013-03-01 04:42:00,67.0,61.0,29.93,NW,326,0.0,0.0,82,0.01,,,0.01,,2013-03-01 09:42:00,
2013-03-01 04:53:00,66.0,61.0,29.92,NW,326,1.0,3.0,84,0.00,,,0.01,,2013-03-01 09:53:00,
2013-03-01 05:02:00,66.0,61.0,29.92,NNW,333,1.0,5.0,84,0.00,,,0.01,,2013-03-01 10:02:00,
2013-03-01 05:12:00,66.0,61.0,29.92,NNW,333,1.0,5.0,84,0.00,,,0.01,,2013-03-01 10:12:00,
2013-03-01 05:22:00,66.0,61.0,29.92,NE,40,0.0,3.0,85,0.00,,,0.01,,2013-03-01 10:22:00,
2013-03-01 05:32:00,66.0,61.0,29.92,NNW,328,7.0,8.0,84,0.00,,,0.01,,2013-03-01 10:32:00,
2013-03-01 05:42:00,66.0,61.0,29.92,NNW,328,7.0,8.0,84,0.00,,,0.01,,2013-03-01 10:42:00,
2013-03-01 05:53:00,65.0,59.0,29.93,North,354,3.0,7.0,81,0.00,,,0.01,,2013-03-01 10:53:00,
2013-03-01 06:02:00,65.0,58.0,29.92,NNW,338,5.0,8.0,78,0.00,,,0.01,,2013-03-01 11:02:00,
2013-03-01 06:11:00,65.0,58.0,29.92,NNW,338,5.0,8.0,78,0.00,,,0.01,,2013-03-01 11:11:00,
2013-03-01 06:22:00,66.0,58.0,29.93,NNW,338,4.0,8.0,75,0.00,,,0.01,,2013-03-01 11:22:00,
2013-03-01 06:32:00,66.0,58.0,29.93,NNW,338,1.0,6.0,76,0.00,,,0.01,,2013-03-01 11:32:00,
2013-03-01 06:42:00,66.0,58.0,29.93,NNW,338,1.0,6.0,76,0.00,,,0.01,,2013-03-01 11:42:00,
2013-03-01 06:53:00,66.0,59.0,29.92,NNE,20,1.0,3.0,77,0.00,,,0.01,,2013-03-01 11:53:00,
2013-03-01 07:02:00,66.0,59.0,29.93,NNE,20,0.0,3.0,78,0.00,,,0.01,,2013-03-01 12:02:00,
2013-03-01 07:11:00,66.0,59.0,29.93,NNE,20,0.0,3.0,78,0.00,,,0.01,,2013-03-01 12:11:00,
2013-03-01 07:22:00,66.0,59.0,29.93,NNE,32,1.0,6.0,79,0.00,,,0.01,,2013-03-01 12:22:00,
2013-03-01 07:32:00,66.0,59.0,29.94,NNE,33,1.0,3.0,79,0.00,,,0.01,,2013-03-01 12:32:00,
2013-03-01 07:42:00,66.0,59.0,29.94,NNE,33,1.0,3.0,79,0.00,,,0.01,,2013-03-01 12:42:00,
2013-03-01 07:52:00,66.0,59.0,29.94,NE,35,1.0,5.0,78,0.00,,,0.01,,2013-03-01 12:52:00,
2013-03-01 08:01:00,67.0,60.0,29.94,NNE,29,3.0,5.0,78,0.00,,,0.01,,2013-03-01 13:01:00,
2013-03-01 08:11:00,67.0,60.0,29.94,NNE,29,3.0,5.0,78,0.00,,,0.01,,2013-03-01 13:11:00,
2013-03-01 08:22:00,67.0,60.0,29.95,NNE,20,3.0,5.0,78,0.00,,,0.01,,2013-03-01 13:22:00,
2013-03-01 08:32:00,67.0,60.0,29.95,North,6,4.0,7.0,77,0.00,,,0.01,,2013-03-01 13:32:00,
2013-03-01 08:42:00,67.0,60.0,29.95,North,6,4.0,7.0,77,0.00,,,0.01,,2013-03-01 13:42:00,
2013-03-01 08:52:00,68.0,59.0,29.96,NNE,22,2.0,6.0,74,0.00,,,0.01,,2013-03-01 13:52:00,
2013-03-01 09:01:00,68.0,59.0,29.96,NNE,22,1.0,3.0,74,0.00,,,0.01,,2013-03-01 14:01:00,
2013-03-01 09:11:00,68.0,59.0,29.96,NNE,22,1.0,3.0,74,0.00,,,0.01,,2013-03-01 14:11:00,
2013-03-01 09:22:00,68.0,59.0,29.96,ENE,60,1.0,4.0,73,0.00,,,0.01,,2013-03-01 14:22:00,
2013-03-01 09:32:00,68.0,59.0,29.96,NE,43,1.0,7.0,73,0.00,,,0.01,,2013-03-01 14:32:00,
2013-03-01 09:42:00,68.0,59.0,29.96,NE,43,1.0,7.0,73,0.00,,,0.01,,2013-03-01 14:42:00,
2013-03-01 09:52:00,69.0,59.0,29.95,NE,39,4.0,7.0,71,0.00,,,0.01,,2013-03-01 14:52:00,
2013-03-01 10:02:00,69.0,59.0,29.96,NE,49,3.0,7.0,71,0.00,,,0.01,,2013-03-01 15:02:00,
2013-03-01 10:11:00,70.0,60.0,29.95,NE,54,2.0,5.0,71,0.00,,,0.01,,2013-03-01 15:11:00,
2013-03-01 10:21:00,70.0,60.0,29.95,NE,54,2.0,5.0,71,0.00,,,0.01,,2013-03-01 15:21:00,
2013-03-01 10:32:00,70.0,60.0,29.96,ENE,64,4.0,8.0,70,0.00,,,0.01,,2013-03-01 15:32:00,
2013-03-01 10:42:00,70.0,60.0,29.96,ENE,64,4.0,8.0,70,0.00,,,0.01,,2013-03-01 15:42:00,
2013-03-01 10:52:00,71.0,61.0,29.96,NE,43,3.0,9.0,70,0.00,,,0.01,,2013-03-01 15:52:00,
2013-03-01 11:01:00,70.0,60.0,29.96,NNE,20,3.0,8.0,70,0.00,,,0.01,,2013-03-01 16:01:00,
2013-03-01 11:11:00,70.0,60.0,29.96,NNE,20,3.0,8.0,70,0.00,,,0.01,,2013-03-01 16:11:00,
2013-03-01 11:21:00,70.0,61.0,29.97,North,352,5.0,10.0,73,0.00,,,0.01,,2013-03-01 16:21:00,
2013-03-01 11:32:00,70.0,61.0,29.97,NNW,338,7.0,11.0,74,0.00,,,0.01,,2013-03-01 16:32:00,
2013-03-01 11:42:00,70.0,61.0,29.97,NNW,338,7.0,11.0,74,0.00,,,0.01,,2013-03-01 16:42:00,
2013-03-01 11:52:00,68.0,60.0,29.97,North,349,8.0,11.0,76,0.00,,,0.01,,2013-03-01 16:52:00,
2013-03-01 12:01:00,68.0,61.0,29.97,NNE,18,6.0,10.0,77,0.00,,,0.01,,2013-03-01 17:01:00,
2013-03-01 12:11:00,68.0,61.0,29.97,NNE,18,6.0,10.0,77,0.00,,,0.01,,2013-03-01 17:11:00,
2013-03-01 12:21:00,68.0,61.0,29.96,NNW,333,7.0,12.0,78,0.00,,,0.01,,2013-03-01 17:21:00,
2013-03-01 12:32:00,67.0,60.0,29.96,NNE,16,7.0,15.0,78,0.00,,,0.01,,2013-03-01 17:32:00,
2013-03-01 12:42:00,67.0,60.0,29.96,NNE,16,7.0,15.0,78,0.00,,,0.01,,2013-03-01 17:42:00,
2013-03-01 12:52:00,67.0,60.0,29.96,North,351,6.0,12.0,78,0.00,,,0.01,,2013-03-01 17:52:00,
2013-03-01 13:01:00,67.0,60.0,29.95,North,8,7.0,11.0,77,0.00,,,0.01,,2013-03-01 18:01:00,
2013-03-01 13:12:00,67.0,60.0,29.95,North,8,7.0,11.0,77,0.00,,,0.01,,2013-03-01 18:12:00,
2013-03-01 13:22:00,67.0,60.0,29.95,North,358,6.0,9.0,77,0.00,,,0.01,,2013-03-01 18:22:00,
2013-03-01 13:32:00,66.0,59.0,29.95,NNW,343,5.0,10.0,78,0.00,,,0.01,,2013-03-01 18:32:00,
2013-03-01 13:42:00,66.0,59.0,29.95,NNW,343,5.0,10.0,78,0.00,,,0.01,,2013-03-01 18:42:00,
2013-03-01 13:52:00,66.0,59.0,29.94,North,349,7.0,12.0,78,0.00,,,0.01,,2013-03-01 18:52:00,
2013-03-01 14:01:00,66.0,59.0,29.94,NNW,343,8.0,12.0,79,0.00,,,0.01,,2013-03-01 19:01:00,
2013-03-01 14:11:00,66.0,59.0,29.94,NNW,343,8.0,12.0,79,0.00,,,0.01,,2013-03-01 19:11:00,
2013-03-01 14:21:00,64.0,58.0,29.93,NNW,343,7.0,12.0,81,0.01,,,0.02,,2013-03-01 19:21:00,
2013-03-01 14:32:00,64.0,58.0,29.93,NNW,343,6.0,11.0,82,0.01,,,0.02,,2013-03-01 19:32:00,
2013-03-01 14:42:00,64.0,58.0,29.93,NNW,343,6.0,11.0,82,0.01,,,0.02,,2013-03-01 19:42:00,
2013-03-01 14:52:00,63.0,58.0,29.92,NNW,348,8.0,13.0,84,0.01,,,0.02,,2013-03-01 19:52:00,
2013-03-01 15:01:00,63.0,58.0,29.92,NNE,27,9.0,13.0,84,0.01,,,0.02,,2013-03-01 20:01:00,
2013-03-01 15:11:00,63.0,58.0,29.92,NNE,27,9.0,13.0,84,0.01,,,0.02,,2013-03-01 20:11:00,
2013-03-01 15:21:00,63.0,59.0,29.91,NW,326,6.0,13.0,86,0.00,,,0.02,,2013-03-01 20:21:00,
2013-03-01 15:32:00,63.0,59.0,29.92,NNW,338,7.0,11.0,87,0.00,,,0.02,,2013-03-01 20:32:00,
2013-03-01 15:42:00,63.0,59.0,29.92,NNW,338,7.0,11.0,87,0.00,,,0.02,,2013-03-01 20:42:00,
2013-03-01 15:52:00,63.0,59.0,29.92,NNW,343,6.0,12.0,87,0.00,,,0.02,,2013-03-01 20:52:00,
2013-03-01 16:01:00,63.0,59.0,29.92,North,358,7.0,13.0,87,0.00,,,0.02,,2013-03-01 21:01:00,
2013-03-01 16:11:00,63.0,59.0,29.92,NNW,343,7.0,12.0,87,0.00,,,0.02,,2013-03-01 21:11:00,
2013-03-01 16:21:00,63.0,59.0,29.92,NNW,343,7.0,12.0,87,0.00,,,0.02,,2013-03-01 21:21:00,
2013-03-01 16:32:00,63.0,59.0,29.92,NNW,327,6.0,10.0,86,0.00,,,0.02,,2013-03-01 21:32:00,
2013-03-01 16:42:00,63.0,59.0,29.92,NNW,327,6.0,10.0,86,0.00,,,0.02,,2013-03-01 21:42:00,
2013-03-01 16:52:00,63.0,59.0,29.92,NNW,333,5.0,10.0,87,0.00,,,0.02,,2013-03-01 21:52:00,
2013-03-01 17:01:00,63.0,59.0,29.92,NNW,347,5.0,8.0,87,0.00,,,0.02,,2013-03-01 22:01:00,
2013-03-01 17:11:00,63.0,59.0,29.92,NNW,338,6.0,10.0,88,0.00,,,0.02,,2013-03-01 22:11:00,
2013-03-01 17:22:00,63.0,59.0,29.92,NNW,338,6.0,10.0,88,0.00,,,0.02,,2013-03-01 22:22:00,
2013-03-01 17:32:00,62.0,58.0,29.93,NNW,338,7.0,11.0,88,0.01,,,0.03,,2013-03-01 22:32:00,
2013-03-01 17:42:00,62.0,58.0,29.93,NNW,338,7.0,11.0,88,0.01,,,0.03,,2013-03-01 22:42:00,
2013-03-01 17:52:00,62.0,59.0,29.93,North,349,7.0,9.0,89,0.01,,,0.03,,2013-03-01 22:52:00,
2013-03-01 18:01:00,62.0,58.0,29.93,NW,324,8.0,12.0,88,0.01,,,0.03,,2013-03-01 23:01:00,
2013-03-01 18:11:00,62.0,58.0,29.93,NW,324,8.0,12.0,88,0.01,,,0.03,,2013-03-01 23:11:00,
2013-03-01 18:21:00,63.0,59.0,29.93,NW,316,8.0,12.0,86,0.01,,,0.03,,2013-03-01 23:21:00,
2013-03-01 18:32:00,63.0,58.0,29.93,NW,326,9.0,13.0,85,0.00,,,0.03,,2013-03-01 23:32:00,
2013-03-01 18:41:00,63.0,58.0,29.93,NW,326,9.0,13.0,85,0.00,,,0.03,,2013-03-01 23:41:00,
2013-03-01 18:52:00,64.0,59.0,29.94,NW,325,8.0,10.0,83,0.00,,,0.03,,2013-03-01 23:52:00,
2013-03-01 19:02:00,64.0,58.0,29.94,North,8,6.0,11.0,82,0.00,,,0.03,,2013-03-02 00:02:00,
2013-03-01 19:12:00,64.0,58.0,29.94,North,8,6.0,11.0,82,0.00,,,0.03,,2013-03-02 00:12:00,
2013-03-01 19:22:00,64.0,58.0,29.95,NNW,338,8.0,12.0,82,0.00,,,0.03,,2013-03-02 00:22:00,
2013-03-01 19:32:00,64.0,58.0,29.95,North,357,8.0,13.0,81,0.00,,,0.03,,2013-03-02 00:32:00,
2013-03-01 19:42:00,64.0,58.0,29.95,North,357,8.0,13.0,81,0.00,,,0.03,,2013-03-02 00:42:00,
2013-03-01 19:52:00,65.0,58.0,29.95,North,357,8.0,12.0,79,0.00,,,0.03,,2013-03-02 00:52:00,
2013-03-01 20:01:00,64.0,57.0,29.96,NW,309,7.0,13.0,79,0.00,,,0.03,,2013-03-02 01:01:00,
2013-03-01 20:11:00,64.0,57.0,29.96,NW,309,7.0,13.0,79,0.00,,,0.03,,2013-03-02 01:11:00,
2013-03-01 20:21:00,64.0,58.0,29.96,NNW,328,9.0,13.0,81,0.00,,,0.03,,2013-03-02 01:21:00,
2013-03-01 20:32:00,64.0,58.0,29.97,NW,324,8.0,14.0,81,0.00,,,0.03,,2013-03-02 01:32:00,
2013-03-01 20:41:00,64.0,58.0,29.97,NW,324,8.0,14.0,81,0.00,,,0.03,,2013-03-02 01:41:00,
2013-03-01 20:52:00,64.0,58.0,29.97,NNW,329,9.0,12.0,81,0.00,,,0.03,,2013-03-02 01:52:00,
2013-03-01 21:01:00,64.0,58.0,29.98,North,351,8.0,15.0,81,0.00,,,0.03,,2013-03-02 02:01:00,
2013-03-01 21:11:00,64.0,58.0,29.98,North,351,8.0,15.0,81,0.00,,,0.03,,2013-03-02 02:11:00,
2013-03-01 21:22:00,64.0,57.0,29.98,NNW,338,9.0,14.0,79,0.00,,,0.03,,2013-03-02 02:22:00,
2013-03-01 21:32:00,65.0,58.0,29.98,NW,307,8.0,13.0,79,0.00,,,0.03,,2013-03-02 02:32:00,
2013-03-01 21:42:00,65.0,58.0,29.98,NW,307,8.0,13.0,79,0.00,,,0.03,,2013-03-02 02:42:00,
2013-03-01 21:52:00,64.0,58.0,29.98,NNW,333,9.0,14.0,80,0.00,,,0.03,,2013-03-02 02:52:00,
2013-03-01 22:02:00,64.0,58.0,29.98,NW,321,8.0,13.0,80,0.00,,,0.03,,2013-03-02 03:02:00,
2013-03-01 22:11:00,64.0,58.0,29.98,NW,321,8.0,13.0,80,0.00,,,0.03,,2013-03-02 03:11:00,
2013-03-01 22:22:00,64.0,58.0,29.98,NNW,333,9.0,15.0,80,0.00,,,0.03,,2013-03-02 03:22:00,
2013-03-01 22:32:00,64.0,58.0,29.99,NW,319,9.0,17.0,80,0.00,,,0.03,,2013-03-02 03:32:00,
2013-03-01 22:42:00,64.0,58.0,29.99,NW,319,9.0,17.0,80,0.00,,,0.03,,2013-03-02 03:42:00,
2013-03-01 22:52:00,63.0,56.0,29.98,NNW,333,11.0,19.0,78,0.00,,,0.03,,2013-03-02 03:52:00,
2013-03-01 23:01:00,63.0,56.0,29.99,NNW,338,13.0,19.0,77,0.00,,,0.03,,2013-03-02 04:01:00,
2013-03-01 23:11:00,63.0,56.0,29.99,NNW,338,13.0,19.0,77,0.00,,,0.03,,2013-03-02 04:11:00,
2013-03-01 23:22:00,63.0,55.0,29.99,WNW,302,10.0,17.0,75,0.00,,,0.03,,2013-03-02 04:22:00,
2013-03-01 23:32:00,63.0,55.0,29.98,NNW,338,9.0,12.0,76,0.00,,,0.03,,2013-03-02 04:32:00,
2013-03-01 23:42:00,63.0,55.0,29.98,NNW,338,9.0,12.0,76,0.00,,,0.03,,2013-03-02 04:42:00,
2013-03-01 23:52:00,63.0,55.0,29.98,NW,323,7.0,14.0,76,0.00,,,0.03,,2013-03-02 04:52:00,